Monticello, KY

5:23 AM EDT on July 21, 2017 (GMT -0400)
Wayne County

Weather History for KEKQ - January, 2012

Change the Weather History Date:

Friday, January 20, 2012

  Actual Average Record
Temperature  
Mean Temperature 43 °F -  
Max Temperature 54 °F 43 °F 64 °F (1974)
Min Temperature 32 °F 26 °F -7 °F (1984)
Degree Days  
Heating Degree Days 22    
Moisture  
Dew Point 36 °F    
Average Humidity 77    
Maximum Humidity 100    
Minimum Humidity 52    
Precipitation  
Precipitation 0.07 in - - ()
Sea Level Pressure  
Sea Level Pressure 30.01 in    
Wind  
Wind Speed 6 mph (ENE)    
Max Wind Speed 14 mph    
Max Gust Speed -    
Visibility 10 miles    
Events Rain    
Averages and records for this station are not official NWS values.
T = Trace of Precipitation, MM = Missing Value Source: NWS Daily Summary

Daily Weather History Graph

Daily Weather History Graph

Search for Another Location

Airport or City:

Trip Planner

Search our weather history database for the weather conditions in past years. The results will help you decide how hot, cold, wet, or windy it might be!

Date:

Astronomy

Jan. 20, 2012 Rise Set
Actual Time 6:49 AM CST 4:51 PM CST
Civil Twilight 6:21 AM CST 5:19 PM CST
Nautical Twilight 5:50 AM CST 5:51 PM CST
Astronomical Twilight 5:19 AM CST 6:22 PM CST
Moon 4:24 AM CST (1/20) 2:23 PM CST (1/20)
Length of Visible Light 10h 57m
Length of Day
10h 01m
Waning Crescent, 8% of the Moon is Illuminated
Jan 20
Waning Crescent
Jan 23
New
Jan 30
First Quarter
Feb 7
Full
Feb 14
Last Quarter

Hourly Weather History & Observations

Time (CST) Temp. Windchill Dew Point Humidity Pressure Visibility Wind Dir Wind Speed Gust Speed Precip Events Conditions
12:56 AM 32.0 °F - 28.0 °F 85% 30.12 in 10.0 mi Calm Calm - N/A   Overcast
1:56 AM 32.9 °F 28.5 °F 27.1 °F 79% 30.12 in 10.0 mi NE 4.6 mph - N/A   Mostly Cloudy
2:56 AM 34.0 °F 29.8 °F 28.0 °F 79% 30.12 in 10.0 mi NNE 4.6 mph - N/A   Overcast
3:56 AM 34.0 °F 28.0 °F 28.0 °F 79% 30.11 in 10.0 mi NNE 6.9 mph - N/A   Overcast
4:45 AM 33.8 °F 28.6 °F 28.4 °F 81% 30.10 in 10.0 mi NNE 5.8 mph - N/A   Overcast
4:56 AM 34.0 °F 28.0 °F 28.0 °F 79% 30.14 in 10.0 mi NNE 6.9 mph - N/A   Overcast
5:26 AM 33.8 °F 27.7 °F 28.4 °F 81% 30.10 in 10.0 mi NNE 6.9 mph - N/A   Overcast
5:56 AM 34.0 °F 28.8 °F 28.0 °F 79% 30.14 in 10.0 mi ENE 5.8 mph - N/A   Overcast
6:56 AM 34.0 °F 29.8 °F 28.0 °F 79% 30.13 in 10.0 mi NE 4.6 mph - N/A   Overcast
8:56 AM 37.9 °F 33.5 °F 27.1 °F 65% 30.14 in 10.0 mi East 5.8 mph - N/A   Overcast
9:13 AM 39.2 °F 34.2 °F 28.4 °F 65% 30.10 in 10.0 mi NNE 6.9 mph - N/A   Overcast
9:32 AM 39.2 °F 33.6 °F 28.4 °F 65% 30.08 in 10.0 mi NNE 8.1 mph - N/A   Overcast
9:56 AM 41.0 °F 34.3 °F 29.1 °F 63% 30.12 in 10.0 mi NNE 11.5 mph - N/A   Overcast
10:56 AM 41.9 °F 36.9 °F 30.0 °F 63% 30.10 in 10.0 mi NNE 8.1 mph - N/A   Mostly Cloudy
11:56 AM 45.0 °F 41.2 °F 31.1 °F 58% 30.04 in 10.0 mi NNE 6.9 mph - N/A   Mostly Cloudy
12:56 PM 46.9 °F - 30.0 °F 52% 30.00 in 10.0 mi East 5.8 mph - N/A   Overcast
1:56 PM 45.9 °F 42.3 °F 32.0 °F 58% 29.99 in 10.0 mi North 6.9 mph - N/A   Overcast
2:56 PM 45.9 °F 42.9 °F 32.9 °F 61% 29.96 in 10.0 mi NE 5.8 mph - N/A   Overcast
3:56 PM 48.9 °F - 34.9 °F 58% 29.95 in 10.0 mi Calm Calm - N/A   Overcast
4:56 PM 47.8 °F - 41.9 °F 80% 29.95 in 10.0 mi SSE 6.9 mph - 0.00 in   Overcast
5:56 PM 50.0 °F - 45.9 °F 86% 29.94 in 10.0 mi SE 6.9 mph - N/A   Overcast
6:56 PM 52.0 °F - 48.9 °F 89% 29.93 in 10.0 mi SSE 10.4 mph - N/A   Overcast
7:56 PM 52.9 °F - 50.0 °F 90% 29.93 in 10.0 mi SSE 8.1 mph - N/A   Overcast
8:56 PM 52.9 °F - 50.0 °F 90% 29.91 in 10.0 mi SSE 6.9 mph - N/A   Overcast
9:56 PM 54.0 °F - 50.9 °F 89% 29.87 in 10.0 mi SSE 11.5 mph - N/A   Mostly Cloudy
10:45 PM 53.6 °F - 51.8 °F 94% 29.82 in 2.5 mi SSE 10.4 mph - 0.02 in Rain Rain
10:56 PM 54.0 °F - 52.9 °F 96% 29.84 in 3.0 mi South 6.9 mph - 0.05 in Rain Rain
11:44 PM 53.6 °F - 53.6 °F 100% 29.79 in 10.0 mi South 13.8 mph - 0.02 in   Overcast
11:56 PM 54.9 °F - 54.0 °F 97% 29.81 in 10.0 mi South 11.5 mph - 0.02 in   Overcast